User: anonymous   Login
Location: Unspecified
(0.0000°N, 0.0000°E)
Time: 19:30:02
(UTC+00:00)
Language:

ONEWEB-0513 - Orbit

View from above orbital plane
View from above orbital plane
View from above satellite
View from above satellite

Ground track
Ground track

The orbit is defined by the following mean orbital elements,

1 54131U          26145.42662933 +.00000000 +00000-0 +12930-3 0 00008
2 54131  87.9157 309.4573 0002105  66.7693 293.3661 13.20267222    06
Epoch (UTC): 25 May 2026 10:14:20
Eccentricity: 0.0002105
inclination: 87.9157°
perigee height: 1182 km
apogee height: 1185 km
right ascension of ascending node: 309.4573°
argument of perigee: 66.7693°
revolutions per day: 13.20267222
mean anomaly at epoch: 293.3661°

The dashed part of the orbit path shows where the satellite is in the earth's shadow,  

DLR